Malmstrom AFB, MT

9:56 AM MDT on July 24, 2017 (GMT -0600)
Malmstrom AFB

Weather History for KGFA - March, 2013

Change the Weather History Date:

Monday, March 4, 2013

  Actual Average (KGTF) Record (KGTF)
Temperature  
Mean Temperature 16 °F -  
Max Temperature 24 °F 40 °F 72 °F (1987)
Min Temperature 6 °F 15 °F -19 °F (1962)
Degree Days  
Heating Degree Days 49    
Moisture  
Dew Point 14 °F    
Average Humidity 81    
Maximum Humidity 86    
Minimum Humidity 54    
Precipitation  
Precipitation 0.03 in - - ()
Sea Level Pressure  
Sea Level Pressure 30.30 in    
Wind  
Wind Speed 10 mph (WNW)    
Max Wind Speed 21 mph    
Max Gust Speed 28 mph    
Visibility 5 miles    
Events Fog , Snow    
Averages and records for this station are not official NWS values.
T = Trace of Precipitation, MM = Missing Value Source: NWS Daily Summary

Daily Weather History Graph

Daily Weather History Graph

Search for Another Location

Airport or City:

Trip Planner

Search our weather history database for the weather conditions in past years. The results will help you decide how hot, cold, wet, or windy it might be!

Date:

Astronomy

Mar. 04, 2013 Rise Set
Actual Time 6:58 AM MST 6:14 PM MST
Civil Twilight 6:28 AM MST 6:45 PM MST
Nautical Twilight 5:52 AM MST 7:21 PM MST
Astronomical Twilight 5:16 AM MST 7:56 PM MST
Moon 1:29 AM MST (3/4) 10:41 AM MST (3/4)
Length of Visible Light 12h 17m
Length of Day
11h 15m
Waning Gibbous, 51% of the Moon is Illuminated
Mar 4
Waning Gibbous
Mar 4
Last Quarter
Mar 11
New
Mar 19
First Quarter
Mar 27
Full

Hourly Weather History & Observations

Time (MST) Temp. Windchill Dew Point Humidity Pressure Visibility Wind Dir Wind Speed Gust Speed Precip Events Conditions
12:51 AM 21.2 °F 10.9 °F 15.8 °F 80% 30.06 in 2.5 mi West 9.2 mph - 0.00 in Snow Light Snow
12:52 AM 19.9 °F 8.6 °F 16.0 °F 85% 30.25 in 2.5 mi West 10.4 mph - 0.00 in Snow Light Snow
12:57 AM 21.2 °F 10.1 °F 15.8 °F 80% 30.06 in 3.0 mi West 10.4 mph - 0.00 in Snow Light Snow
1:13 AM 21.2 °F 10.1 °F 17.6 °F 86% 30.07 in 2.5 mi West 10.4 mph - 0.00 in Snow Light Snow
1:25 AM 21.2 °F 5.6 °F 17.6 °F 86% 30.07 in 1.8 mi WNW 20.7 mph 27.6 mph 0.00 in Snow Light Snow
1:35 AM 21.2 °F 7.3 °F 15.8 °F 80% 30.08 in 2.0 mi NW 16.1 mph 24.2 mph 0.00 in Snow Light Snow
1:45 AM 19.4 °F 6.6 °F 15.8 °F 86% 30.08 in 1.5 mi NW 12.7 mph 21.9 mph 0.00 in Snow Light Snow
1:56 AM 19.9 °F 5.7 °F 16.0 °F 85% 30.27 in 1.8 mi NW 16.1 mph 23.0 mph 0.00 in Snow Light Snow
2:04 AM 19.4 °F 4.5 °F 15.8 °F 86% 30.09 in 2.5 mi NW 17.3 mph 23.0 mph 0.00 in Snow Light Snow
2:11 AM 19.4 °F 6.0 °F 15.8 °F 86% 30.09 in 3.0 mi NW 13.8 mph 25.3 mph 0.00 in Snow Light Snow
2:20 AM 19.4 °F 4.5 °F 15.8 °F 86% 30.10 in 2.5 mi WNW 17.3 mph 24.2 mph 0.00 in Snow Light Snow
2:37 AM 19.4 °F 5.5 °F 15.8 °F 86% 30.11 in 4.0 mi NW 15.0 mph 24.2 mph 0.00 in Snow Light Snow
2:56 AM 19.9 °F 4.8 °F 15.1 °F 81% 30.30 in 4.0 mi NW 18.4 mph 23.0 mph 0.00 in Snow Light Snow
3:12 AM 19.4 °F 6.0 °F 15.8 °F 86% 30.13 in 2.5 mi WNW 13.8 mph - 0.00 in Snow Light Snow
3:56 AM 19.9 °F 7.3 °F 15.1 °F 81% 30.35 in 2.5 mi WNW 12.7 mph - 0.00 in Snow Light Snow
5:14 AM 19.4 °F 7.9 °F 15.8 °F 86% 30.17 in 2.5 mi WNW 10.4 mph - 0.00 in Snow Light Snow
5:41 AM 19.4 °F 8.6 °F 15.8 °F 86% 30.18 in 1.8 mi West 9.2 mph - 0.00 in Snow Light Snow
5:54 AM 19.4 °F 8.6 °F 15.8 °F 86% 30.18 in 1.5 mi WNW 9.2 mph - 0.00 in Snow Light Snow
5:56 AM 19.9 °F 8.6 °F 15.1 °F 81% 30.41 in 1.5 mi WNW 10.4 mph - 0.00 in Snow Light Snow
6:11 AM 19.4 °F 7.2 °F 15.8 °F 86% 30.18 in 2.5 mi WNW 11.5 mph - 0.00 in Snow Light Snow
6:20 AM 19.4 °F 8.6 °F 15.8 °F 86% 30.19 in 3.0 mi WNW 9.2 mph - 0.00 in Snow Light Snow
6:56 AM 19.9 °F 7.9 °F 14.0 °F 78% 30.44 in 8.0 mi NW 11.5 mph - 0.00 in Snow Light Snow
7:33 AM 19.4 °F 8.6 °F 15.8 °F 86% 30.22 in 8.0 mi WNW 9.2 mph - 0.00 in Snow Light Snow
7:56 AM 19.9 °F 13.4 °F 16.0 °F 85% 30.48 in 7.0 mi WNW 4.6 mph - 0.00 in Snow Light Snow
8:09 AM 19.4 °F 12.8 °F 15.8 °F 86% 30.23 in 2.5 mi WNW 4.6 mph - 0.00 in Snow Light Snow
8:17 AM 19.4 °F 11.5 °F 15.8 °F 86% 30.23 in 1.2 mi West 5.8 mph - 0.00 in Snow Light Snow
8:27 AM 19.4 °F 11.5 °F 15.8 °F 86% 30.23 in 3.0 mi West 5.8 mph - 0.00 in Snow Light Snow
8:43 AM 19.4 °F 11.5 °F 15.8 °F 86% 30.23 in 2.5 mi WNW 5.8 mph - 0.00 in Snow Light Snow
8:56 AM 21.0 °F 14.6 °F 17.1 °F 85% 30.49 in 4.0 mi West 4.6 mph - 0.00 in Snow Light Snow
9:10 AM 21.2 °F 14.9 °F 15.8 °F 80% 30.24 in 4.0 mi WNW 4.6 mph - 0.00 in Snow Light Snow
9:53 AM 21.2 °F 13.6 °F 15.8 °F 80% 30.25 in 5.0 mi NW 5.8 mph - 0.00 in Snow Light Snow
9:56 AM 21.9 °F 17.2 °F 16.0 °F 78% 30.51 in 5.0 mi NW 3.5 mph - 0.00 in Snow Light Snow
10:13 AM 21.2 °F 10.9 °F 15.8 °F 80% 30.26 in 7.0 mi NW 9.2 mph - 0.00 in Snow Light Snow
10:41 AM 21.2 °F 11.7 °F 17.6 °F 86% 30.26 in 7.0 mi North 8.1 mph - 0.00 in Snow Light Snow
10:47 AM 21.2 °F 12.6 °F 17.6 °F 86% 30.26 in 2.5 mi NNE 6.9 mph - 0.00 in Snow Light Snow
10:52 AM 21.2 °F 13.6 °F 17.6 °F 86% 30.26 in 1.0 mi NNE 5.8 mph - 0.00 in Snow Light Snow
10:56 AM 21.0 °F - 17.1 °F 85% 30.52 in 0.5 mi Calm Calm - 0.00 in Fog , Snow Snow
1:56 PM 23.0 °F 15.8 °F 12.0 °F 63% 30.54 in 10.0 mi WNW 5.8 mph - N/A   Overcast
2:45 PM 24.8 °F 17.9 °F 10.4 °F 54% 30.29 in 10.0 mi NW 5.8 mph - N/A   Overcast
2:56 PM 23.0 °F 15.8 °F 10.0 °F 58% 30.54 in 10.0 mi NNW 5.8 mph - N/A   Overcast
3:56 PM 23.0 °F - 10.0 °F 58% 30.54 in 10.0 mi Calm Calm - N/A   Clear
4:56 PM 19.9 °F 13.4 °F 12.0 °F 71% 30.53 in 10.0 mi ESE 4.6 mph - N/A   Scattered Clouds
5:56 PM 19.9 °F 11.1 °F 12.9 °F 74% 30.52 in 10.0 mi SE 6.9 mph - N/A   Mostly Cloudy
6:56 PM 12.0 °F 2.7 °F 8.1 °F 84% 30.55 in 10.0 mi ESE 5.8 mph - N/A   Clear
7:56 PM 9.0 °F -2.2 °F 3.9 °F 80% 30.55 in 10.0 mi SE 6.9 mph - N/A   Clear
8:56 PM 8.1 °F -4.3 °F 1.9 °F 76% 30.53 in 10.0 mi SE 8.1 mph - N/A   Clear
9:56 PM 8.1 °F -6.2 °F 1.9 °F 76% 30.52 in 10.0 mi SE 10.4 mph - N/A   Clear
10:56 PM 9.0 °F -4.2 °F 1.9 °F 73% 30.51 in 10.0 mi ESE 9.2 mph - N/A   Clear
11:56 PM 6.1 °F -5.6 °F -0.0 °F 76% 30.50 in 10.0 mi SSE 6.9 mph - N/A   Clear